This demonstration page uses our WeatherBlox Daily Observations layout. Learn more.

Left ArrowRight Arrow

39.08367, -84.50855

Hourly Observations for December 10, 2016

Temp ( °F °C ) Dew Point ( °F °C ) Humidity (%) Winds ( mph kmh ) Pressure ( in mb ) Visibility ( mi km ) Precip ( " mm )
12:53 am 00:53 Clear 18 -7.8 14 -10 84 84 SSW 7 11 30.59 1036 10 16 0.00 0.00
1:53 am 01:53 Clear 20 -6.7 16 -8.9 85 85 SSW 6 9 30.60 1036 10 16 0.00 0.00
2:53 am 02:53 Mostly Cloudy 20 -6.7 16 -8.9 85 85 S 5 7 30.60 1036 10 16 0.00 0.00
3:53 am 03:53 Mostly Clear 21 -6.1 17 -8.3 85 85 S 5 7 30.61 1037 10 16 0.00 0.00
4:53 am 04:53 Clear 21 -6.1 17 -8.3 85 85 S 5 7 30.59 1036 10 16 0.00 0.00
5:53 am 05:53 Cloudy 22 -5.6 17 -8.3 82 82 VRB 3 6 30.59 1036 10 16 0.00 0.00
6:53 am 06:53 Cloudy 22 -5.6 18 -7.8 85 85 SSW 3 6 30.61 1037 10 16 0.00 0.00
7:53 am 07:53 Cloudy 22 -5.6 19 -7.2 89 89 S 5 7 30.62 1037 10 16 0.00 0.00
8:53 am 08:53 Mostly Cloudy 24 -4.4 19 -7.2 81 81 SW 5 7 30.62 1037 9 14 0.00 0.00
9:53 am 09:53 Partly Cloudy 26 -3.3 19 -7.2 75 75 SW 6 9 30.63 1037 10 16 0.00 0.00
10:35 am 10:35 Mostly Cloudy 28 -2.2 19 -7.2 69 69 WSW 8 13 30.65 1038 10 16 0.00 0.00
10:53 am 10:53 Mostly Cloudy 27 -2.8 18 -7.8 69 69 W 7 11 30.63 1037 10 16 0.00 0.00
11:53 am 11:53 Mostly Cloudy 28 -2.2 17 -8.3 63 63 WSW 6 9 30.60 1036 10 16 0.00 0.00
12:53 pm 12:53 Cloudy 28 -2.2 17 -8.3 63 63 SSW 5 7 30.58 1036 10 16 0.00 0.00
1:53 pm 13:53 Mostly Cloudy 31 -0.6 18 -7.8 59 59 SSW 9 15 30.55 1034 10 16 0.00 0.00
2:53 pm 14:53 Cloudy 31 -0.6 18 -7.8 59 59 WSW 7 11 30.54 1034 10 16 0.00 0.00
3:53 pm 15:53 Mostly Cloudy 31 -0.6 18 -7.8 59 59 S 6 9 30.53 1034 10 16 0.00 0.00
4:53 pm 16:53 Mostly Cloudy 27 -2.8 18 -7.8 69 69 SSW 6 9 30.53 1034 10 16 0.00 0.00
5:53 pm 17:53 Mostly Clear 28 -2.2 19 -7.2 69 69 SSE 3 6 30.53 1034 10 16 0.00 0.00
6:53 pm 18:53 Cloudy 29 -1.7 18 -7.8 63 63 SSE 3 6 30.51 1033 10 16 0.00 0.00
7:53 pm 19:53 Cloudy 29 -1.7 20 -6.7 69 69 SSW 3 6 30.51 1033 10 16 0.00 0.00
8:53 pm 20:53 Mostly Clear 29 -1.7 19 -7.2 66 66 Calm 30.49 1033 10 16 0.00 0.00
9:53 pm 21:53 Clear 29 -1.7 19 -7.2 66 66 Calm 30.46 1031 10 16 0.00 0.00
10:53 pm 22:53 Partly Cloudy 29 -1.7 20 -6.7 69 69 WSW 3 6 30.44 1031 10 16 0.00 0.00
11:53 pm 23:53 Mostly Clear 29 -1.7 20 -6.7 69 69 Calm 30.42 1030 10 16 0.00 0.00

Powered by AerisWeather